This is the latest recevied weather packets stored in our database for station/object AA4OM-2. If no packets are shown the sender has not sent any weather packets the latest 10 day(s).
| Time | Temp. | Humidity | Pressure | Rain* | Wind** | Luminosity | Snow |
|---|---|---|---|---|---|---|---|
| 1777733327 | 15° C | 50% | 1018.7 hPa | 0 mm | - | 207 W/m² | - |
| 1777733024 | 15° C | 49% | 1018.6 hPa | 0 mm | - | 505 W/m² | - |
| 1777732719 | 14.44° C | 51% | 1018.9 hPa | 0 mm | - | 301 W/m² | - |
| 1777732417 | 14.44° C | 53% | 1018.7 hPa | 0 mm | - | 334 W/m² | - |
| 1777732115 | 13.89° C | 53% | 1019 hPa | 0 mm | - | 359 W/m² | - |
| 1777731811 | 14.44° C | 59% | 1018.8 hPa | 0 mm | - | 233 W/m² | - |
| 1777731508 | 13.89° C | 60% | 1018.8 hPa | 0 mm | - | 257 W/m² | - |
| 1777731207 | 13.89° C | 59% | 1018.8 hPa | 0 mm | - | 150 W/m² | - |
| 1777730904 | 13.33° C | 61% | 1018.9 hPa | 0 mm | - | 122 W/m² | - |
| 1777730601 | 13.89° C | 58% | 1019 hPa | 0 mm | - | 82 W/m² | - |
| 1777730297 | 13.89° C | 60% | 1018.8 hPa | 0 mm | - | 66 W/m² | - |
| 1777729994 | 13.89° C | 59% | 1018.8 hPa | 0 mm | - | 316 W/m² | - |
| 1777729690 | 13.33° C | 59% | 1018.7 hPa | 0 mm | - | 197 W/m² | - |
| 1777729387 | 13.33° C | 64% | 1018.5 hPa | 0 mm | - | 133 W/m² | - |
| 1777729083 | 12.78° C | 67% | 1018.4 hPa | 0 mm | - | 204 W/m² | - |
| 1777728780 | 11.67° C | 71% | 1018.5 hPa | 0 mm | - | 145 W/m² | - |
| 1777728477 | 11.67° C | 79% | 1018.7 hPa | 0 mm | - | 127 W/m² | - |
| 1777728175 | 11.11° C | 81% | 1018.6 hPa | 0 mm | - | 69 W/m² | - |
| 1777727871 | 10.56° C | 78% | 1018.6 hPa | 0 mm | - | 51 W/m² | - |
| 1777727569 | 9.44° C | 95% | 1018.9 hPa | 0 mm | - | 105 W/m² | - |
| 1777727266 | 8.89° C | 98% | 1018.5 hPa | 0 mm | - | 83 W/m² | - |
| 1777726963 | 8.33° C | 99% | 1018.5 hPa | 0 mm | - | 106 W/m² | - |
| 1777726659 | 8.33° C | 99% | 1018.6 hPa | 0 mm | - | 61 W/m² | - |
| 1777726357 | 7.78° C | 99% | 1018.6 hPa | 0 mm | - | 42 W/m² | - |
| 1777726053 | 7.78° C | 99% | 1018.5 hPa | 0 mm | - | 41 W/m² | - |
* Rain latest hour (hover to see other rain measurements)
** Current wind speed in m/s (hover to see current wind gust speed)